TimeEST,TemperatureF,Dew PointF,Humidity,Sea Level PressureIn,VisibilityMPH,Wind Direction,Wind SpeedMPH,Gust SpeedMPH,PrecipitationIn,Events,Conditions,WindDirDegrees,DateUTC
12:54 AM,36.0,33.1,89,30.12,10.0,Calm,Calm,-,N/A,,Clear,0,2012-11-21 05:54:00
1:54 AM,39.0,36.0,89,30.13,10.0,NNW,3.5,-,N/A,,Clear,340,2012-11-21 06:54:00
2:54 AM,39.0,35.1,86,30.12,10.0,Calm,Calm,-,N/A,,Clear,0,2012-11-21 07:54:00
3:54 AM,37.0,34.0,89,30.14,10.0,NNW,3.5,-,N/A,,Partly Cloudy,340,2012-11-21 08:54:00
4:09 AM,37.4,35.6,93,30.14,10.0,Calm,Calm,-,N/A,,Mostly Cloudy,0,2012-11-21 09:09:00
4:54 AM,39.9,35.1,83,30.15,10.0,North,6.9,-,N/A,,Overcast,360,2012-11-21 09:54:00
5:12 AM,39.2,35.6,87,30.15,10.0,North,5.8,-,N/A,,Mostly Cloudy,360,2012-11-21 10:12:00
5:54 AM,39.0,35.1,86,30.16,10.0,North,4.6,-,N/A,,Mostly Cloudy,360,2012-11-21 10:54:00
6:54 AM,37.0,34.0,89,30.17,10.0,North,4.6,-,N/A,,Scattered Clouds,360,2012-11-21 11:54:00
7:54 AM,39.9,35.1,83,30.18,10.0,North,4.6,-,N/A,,Clear,10,2012-11-21 12:54:00
8:54 AM,46.0,36.0,68,30.18,10.0,NNE,6.9,-,N/A,,Clear,20,2012-11-21 13:54:00
9:54 AM,48.9,37.9,66,30.19,10.0,NE,8.1,-,N/A,,Clear,50,2012-11-21 14:54:00
10:54 AM,51.1,37.0,59,30.19,10.0,NNE,8.1,-,N/A,,Clear,20,2012-11-21 15:54:00
11:54 AM,53.1,34.0,48,30.17,10.0,North,10.4,-,N/A,,Clear,360,2012-11-21 16:54:00
12:54 PM,54.0,26.1,34,30.16,10.0,NE,12.7,-,N/A,,Clear,40,2012-11-21 17:54:00
1:26 PM,53.6,26.6,35,30.16,10.0,NE,11.5,17.3,N/A,,Partly Cloudy,50,2012-11-21 18:26:00
1:54 PM,54.0,27.0,35,30.15,10.0,NE,9.2,-,N/A,,Clear,40,2012-11-21 18:54:00
2:54 PM,54.0,26.1,34,30.15,10.0,NE,8.1,-,N/A,,Clear,40,2012-11-21 19:54:00
3:54 PM,52.0,27.0,38,30.16,10.0,NNE,5.8,-,N/A,,Clear,20,2012-11-21 20:54:00
4:54 PM,46.0,28.9,51,30.18,10.0,North,3.5,-,N/A,,Clear,360,2012-11-21 21:54:00
5:54 PM,42.1,33.1,70,30.20,10.0,East,3.5,-,N/A,,Clear,90,2012-11-21 22:54:00
6:54 PM,36.0,30.0,79,30.21,10.0,Calm,Calm,-,N/A,,Clear,0,2012-11-21 23:54:00
7:54 PM,32.0,28.9,88,30.22,10.0,Calm,Calm,-,N/A,,Clear,0,2012-11-22 00:54:00
8:54 PM,30.0,28.0,92,30.21,10.0,Calm,Calm,-,N/A,,Clear,0,2012-11-22 01:54:00
9:54 PM,30.9,28.0,89,30.22,10.0,Calm,Calm,-,N/A,,Clear,0,2012-11-22 02:54:00
10:54 PM,28.9,27.0,92,30.22,10.0,Calm,Calm,-,N/A,,Clear,0,2012-11-22 03:54:00
11:54 PM,28.0,27.0,96,30.22,10.0,Calm,Calm,-,N/A,,Clear,0,2012-11-22 04:54:00